Weather History for Pocatello, ID

Change the Weather History Date:

Tuesday, December 10, 2013

  Actual Average Record
Temperature  
Mean Temperature 9 °F 25 °F  
Max Temperature 17 °F 33 °F 63 °F (1939)
Min Temperature 0 °F 16 °F -28 °F (1972)
Degree Days  
Heating Degree Days 56 40  
Month to date heating degree days 504 390  
Since 1 July heating degree days 2116 2118  
Cooling Degree Days 0 0  
Month to date cooling degree days 0 0  
Year to date cooling degree days 688 392  
Moisture  
Dew Point 2 °F    
Average Humidity 74    
Maximum Humidity 87    
Minimum Humidity 61    
Precipitation  
Precipitation 0.00 in 0.04 in 0.46 in (1964)
Month to date precipitation 0.33 0.42  
Year to date precipitation 6.07 11.31  
Snow  
Snow 0.00 in - - ()
Month to date snowfall 6.7  
Since 1 July snowfall 8.2  
Snow Depth 3.00 in    
Sea Level Pressure  
Sea Level Pressure 30.55 in    
Wind  
Wind Speed 6 mph (NNE)    
Max Wind Speed 16 mph    
Max Gust Speed 19 mph    
Visibility 10 miles    
Events      
T = Trace of Precipitation, MM = Missing Value Source: NWS Daily Summary

Daily Weather History Graph

Daily Weather History Graph

Search for Another Location

Airport:

Trip Planner

Search our weather history database for the weather conditions in past years. The results will help you decide how hot, cold, wet, or windy it might be!

Date:

Astronomy

Dec. 10, 2013 Rise Set
Actual Time 7:50 AM MST 4:55 PM MST
Civil Twilight 7:18 AM MST 5:27 PM MST
Nautical Twilight 6:42 AM MST 6:03 PM MST
Astronomical Twilight 6:08 AM MST 6:38 PM MST
Moon 1:06 PM MST (12/10) 1:04 AM MST (12/10)
Length of Visible Light 10h 09m
Length of Day
9h 05m
Waxing Gibbous, 62% of the Moon is Illuminated
Dec 10
Waxing Gibbous
Dec 17
Full
Dec 25
Last Quarter
Jan 1
New
Jan 7
First Quarter

Hourly Weather History & Observations

Time (MST) Temp. Windchill Dew Point Humidity Pressure Visibility Wind Dir Wind Speed Gust Speed Precip Events Conditions
12:53 AM 3.9 °F -8.2 °F -0.9 °F 80% 30.63 in 10.0 mi North 6.9 mph - N/A   Overcast
1:53 AM 3.9 °F -8.2 °F -0.0 °F 84% 30.60 in 10.0 mi NNE 6.9 mph - N/A   Overcast
2:53 AM 3.0 °F -6.4 °F -2.0 °F 80% 30.57 in 10.0 mi East 4.6 mph - N/A   Overcast
3:53 AM 3.9 °F -11.3 °F -0.9 °F 80% 30.57 in 10.0 mi North 10.4 mph - N/A   Overcast
4:53 AM 7.0 °F -6.6 °F -0.0 °F 73% 30.53 in 10.0 mi North 9.2 mph - N/A   Overcast
5:53 AM 8.1 °F -4.3 °F 1.9 °F 76% 30.53 in 10.0 mi NNE 8.1 mph - N/A   Overcast
6:53 AM 8.1 °F -7.0 °F 1.9 °F 76% 30.51 in 10.0 mi North 11.5 mph - N/A   Overcast
7:53 AM 9.0 °F -5.9 °F 3.0 °F 77% 30.52 in 10.0 mi North 11.5 mph - N/A   Overcast
8:53 AM 9.0 °F -6.6 °F 3.0 °F 77% 30.54 in 10.0 mi NNE 12.7 mph - N/A   Overcast
9:53 AM 10.0 °F -1.9 °F 1.9 °F 70% 30.57 in 10.0 mi ENE 8.1 mph - N/A   Overcast
10:53 AM 12.0 °F 1.5 °F 3.0 °F 67% 30.56 in 10.0 mi NNE 6.9 mph - N/A   Overcast
11:53 AM 15.1 °F 7.7 °F 5.0 °F 64% 30.53 in 10.0 mi North 4.6 mph - N/A   Mostly Cloudy
12:53 PM 15.1 °F 5.2 °F 6.1 °F 68% 30.53 in 10.0 mi ENE 6.9 mph - N/A   Mostly Cloudy
1:53 PM 16.0 °F 10.4 °F 6.1 °F 65% 30.52 in 10.0 mi East 3.5 mph - N/A   Mostly Cloudy
2:53 PM 15.1 °F 7.7 °F 6.1 °F 68% 30.52 in 10.0 mi ENE 4.6 mph - N/A   Mostly Cloudy
3:53 PM 15.1 °F 7.7 °F 6.1 °F 68% 30.52 in 10.0 mi NE 4.6 mph - N/A   Mostly Cloudy
4:53 PM 14.0 °F 8.2 °F 6.1 °F 71% 30.53 in 10.0 mi NNE 3.5 mph - N/A   Mostly Cloudy
5:53 PM 12.0 °F 2.7 °F 5.0 °F 73% 30.56 in 10.0 mi North 5.8 mph - N/A   Mostly Cloudy
6:53 PM 10.0 °F - 3.0 °F 73% 30.59 in 10.0 mi Calm Calm - N/A   Mostly Cloudy
7:53 PM 6.1 °F -2.8 °F 1.0 °F 80% 30.60 in 10.0 mi SSW 4.6 mph - N/A   Mostly Cloudy
8:53 PM 3.0 °F -6.4 °F -2.0 °F 80% 30.63 in 10.0 mi North 4.6 mph - N/A   Clear
9:46 PM 3.0 °F - -0.9 °F 84% 30.39 in 10.0 mi Calm Calm - N/A   Mostly Cloudy
9:53 PM 3.0 °F -6.4 °F -0.0 °F 87% 30.63 in 10.0 mi East 4.6 mph - N/A   Mostly Cloudy
10:32 PM 3.0 °F - -0.9 °F 84% 30.40 in 10.0 mi Calm Calm - N/A   Mostly Cloudy
10:53 PM 1.9 °F - -2.0 °F 83% 30.63 in 9.0 mi Calm Calm - N/A   Overcast
11:53 PM 1.0 °F - -2.9 °F 83% 30.63 in 8.0 mi Calm Calm - N/A   Clear